This is the latest recevied weather packets stored in our database for station/object K2NV. If no packets are shown the sender has not sent any weather packets the latest 1 day(s).
| Time | Temp. | Humidity | Pressure | Rain* | Wind** | Luminosity | Snow |
|---|---|---|---|---|---|---|---|
| 1777979356 | 16.11° C | 73% | 1000.3 hPa | 0 mm | 4.47 m/s, 232° | - | - |
| 1777979056 | 16.11° C | 73% | 1000.2 hPa | 0 mm | 5.36 m/s, 234° | - | - |
| 1777978757 | 16.11° C | 73% | 1000.1 hPa | 0 mm | 4.47 m/s, 242° | - | - |
| 1777978455 | 16.11° C | 73% | 1000 hPa | 0 mm | 4.47 m/s, 237° | - | - |
| 1777978157 | 16.11° C | 72% | 999.9 hPa | 0 mm | 4.47 m/s, 230° | - | - |
| 1777977856 | 16.11° C | 72% | 999.8 hPa | 0 mm | 5.36 m/s, 243° | - | - |
| 1777977557 | 16.11° C | 72% | 999.7 hPa | 0 mm | 5.36 m/s, 229° | - | - |
| 1777977256 | 16.11° C | 72% | 999.7 hPa | 0 mm | 4.47 m/s, 242° | - | - |
| 1777976956 | 16.11° C | 73% | 999.6 hPa | 0 mm | 4.02 m/s, 238° | - | - |
| 1777976655 | 16.11° C | 73% | 999.4 hPa | 0 mm | 5.36 m/s, 230° | - | - |
| 1777976355 | 16.11° C | 73% | 999.3 hPa | 0 mm | 4.02 m/s, 227° | - | - |
| 1777976059 | 16.11° C | 73% | 999.3 hPa | 0 mm | 4.02 m/s, 226° | - | - |
| 1777975756 | 16.11° C | 73% | 999.3 hPa | 0 mm | 4.47 m/s, 226° | - | - |
| 1777975455 | 16.11° C | 74% | 999.3 hPa | 0 mm | 4.47 m/s, 221° | - | - |
| 1777975157 | 16.11° C | 74% | 999.2 hPa | 0 mm | 4.02 m/s, 227° | - | - |
| 1777974856 | 16.11° C | 74% | 999.1 hPa | 0 mm | 3.58 m/s, 221° | - | - |
| 1777974556 | 16.11° C | 75% | 999.2 hPa | 0 mm | 3.58 m/s, 219° | - | - |
| 1777974256 | 15.56° C | 75% | 999.2 hPa | 0 mm | 4.47 m/s, 223° | - | - |
| 1777973656 | 15.56° C | 77% | 999 hPa | 0 mm | 5.36 m/s, 211° | - | - |
| 1777973358 | 15.56° C | 77% | 999.1 hPa | 0 mm | 5.36 m/s, 216° | - | - |
| 1777973057 | 15° C | 79% | 998.9 hPa | 0 mm | 5.36 m/s, 213° | - | - |
| 1777972756 | 15° C | 80% | 998.9 hPa | 0 mm | 4.02 m/s, 219° | - | - |
| 1777972456 | 14.44° C | 82% | 999 hPa | 0 mm | 3.58 m/s, 216° | - | - |
| 1777972156 | 13.89° C | 83% | 999 hPa | 0 mm | 3.58 m/s, 214° | - | - |
| 1777971855 | 13.33° C | 85% | 998.9 hPa | 0 mm | 4.47 m/s, 206° | - | - |
* Rain latest hour (hover to see other rain measurements)
** Current wind speed in m/s (hover to see current wind gust speed)